Regional Weather Roundup
Issued by NWS Upton, NY

Home | Current Version | Previous Version | Text Only | Print | Product List | Glossary On
Versions: 1 2 3 4 5 6 7 8 9 10 11 12 13 14 15 16 17 18 19 20 21 22 23 24 25 26 27 28 29 30 31 32 33 34 35 36 37 38 39 40 41 42 43 44 45 46 47 48 49 50
089
ASUS41 KOKX 031104
RWROKX

REGIONAL WEATHER ROUNDUP
NATIONAL WEATHER SERVICE NEW YORK NY
700 AM EDT TUE MAY 03 2016

NOTE: "FAIR" INDICATES FEW OR NO CLOUDS BELOW 12,000 FEET WITH NO
SIGNIFICANT WEATHER AND/OR OBSTRUCTIONS TO VISIBILITY.

NYZ071-072-176-178-NJZ106-104-031200-
NEW YORK CITY METRO AREA


CITY           SKY/WX    TMP DP  RH WIND       PRES   REMARKS
CENTRAL PARK   LGT RAIN  52  50  93 VRB6      29.90R FOG
LAGUARDIA APRT LGT RAIN  53  50  89 E8        29.87F
KENNEDY INTL   LGT RAIN  53  50  89 E8        29.88F FOG
NEWARK/LIBERTY LGT RAIN  54  53  97 NE6       29.87R
BRNX BOT. GARD   N/A     52  50  93 N3        29.90R
TETERBORO      RAIN      53  49  86 CALM      29.87R FOG
$$

NYZ177-179-078>081-031200-
LONG ISLAND NEW YORK

CITY           SKY/WX    TMP DP  RH WIND       PRES   REMARKS
FARMINGDALE    LGT RAIN  52  50  93 NE3       29.88S FOG
ISLIP          NOT AVBL
SHIRLEY        RAIN      52  50  93 CALM      29.89R FOG
RIVERHEAD        N/A     52  50  93 E1        29.88R
WESTHAMPTON    LGT RAIN  49  49 100 NE6       29.90R FOG
EAST HAMPTON   RAIN      49  49  97 E5        29.87S
MONTAUK POINT    N/A     49  48  97 E7        29.89F
$$

NYZ052-065-067-031200-
HUDSON VALLEY

CITY           SKY/WX    TMP DP  RH WIND       PRES   REMARKS
WHITE PLAINS   LGT RAIN  51  49  92 E6        29.88R FOG
NEWBURGH       LGT RAIN  48  48 100 E9        29.91R FOG
MONTGOMERY     LGT RAIN  49  47  93 E6        29.89R FOG
POUGHKEEPSIE   LGT RAIN  50  47  89 CALM      29.90R
ALBANY         CLOUDY    46  42  86 N8        29.91S
$$

NJZ001-105-106-008-010-013-015-019>022-104-031200-
NEW JERSEY

CITY           SKY/WX    TMP DP  RH WIND       PRES   REMARKS
NEWARK/LIBERTY LGT RAIN  54  53  97 NE6       29.87R
TETERBORO      RAIN      53  49  86 CALM      29.87R FOG
CALDWELL       LGT RAIN  53  50  89 E9        29.88R
MORRISTOWN     RAIN      52  52 100 NE3       29.88R
SOMERVILLE     CLOUDY    54  52  93 E8        29.84R
SUSSEX         RAIN      50  48  93 NE5       29.88S FOG
ANDOVER          N/A     50  49  96 NE7       29.87R
TRENTON        LGT RAIN  55  53  93 E8        29.83F
MILLVILLE      LGT RAIN  56  55  97 NE5       29.80F FOG
ATLANTIC CITY  LGT RAIN  54  54 100 E5        29.80F VSB 1/2
WRIGHTSTOWN    NOT AVBL
TOMS RIVER     CLOUDY    54  48  82 NE9       29.86R
BELMAR         RAIN      52  51  97 NE7       29.87S FOG
$$

PAZ047>061-062-071-031200-
EASTERN PENNSYLVANIA

CITY           SKY/WX    TMP DP  RH WIND       PRES   REMARKS
PHILADELPHIA   LGT RAIN  57  53  86 NE9       29.82S
ALLENTOWN      CLOUDY    52  49  89 NE6       29.85S
SCRANTON       LGT RAIN  48  47  96 N3        29.87S FOG
$$

CTZ002-004>006-009-010-012-RIZ004-006-007-MAZ004-011-015-031200-
SOUTHERN NEW ENGLAND
 IN CT

CITY           SKY/WX    TMP DP  RH WIND       PRES   REMARKS
BRADLEY INTL   LGT RAIN  48  46  93 N5        29.89S FOG
HARTFORD       LGT RAIN  51  49  92 CALM      29.89F FOG
DANBURY        RAIN      50  47  89 E5        29.90R FOG
WTRBRY/OXFORD  LGT RAIN  48  45  87 CALM      29.90R FOG
BRIDGEPORT     RAIN      52  50  93 E7        29.89S FOG
MERIDEN        LGT RAIN  51  48  89 CALM      29.89S FOG
NEW HAVEN      LGT RAIN  50  50 100 CALM      29.89R FOG
CHESTER        LGT RAIN  50  50 100 CALM      29.88S
GROTON         LGT RAIN  50  50 100 E7        29.88S
WILLIMANTIC    LGT RAIN  50  46  86 CALM      29.90F FOG

 IN RI

CITY           SKY/WX    TMP DP  RH WIND       PRES   REMARKS
PROVIDENCE     LGT RAIN  49  47  93 E6        29.92F FOG
BLOCK ISLAND   LGT RAIN  47  47 100 E10       29.89F FOG
WESTERLY       LGT RAIN  49  46  90 NE6       29.89F FOG

 IN MA

CITY           SKY/WX    TMP DP  RH WIND       PRES   REMARKS
BOSTON         LGT RAIN  46  43  89 E6        29.94S
WORCESTER      RAIN      45  44  97 SE6       29.90S VSB<1/4
WESTFIELD      LGT RAIN  47  45  93 NE3       29.89S
PROVINCETOWN   LGT RAIN  46  44  93 NE6       29.94F
NANTUCKET      LGT RAIN  48  45  89 NE7       29.93S
$$

ANZ330-335-338-340-345-350-353-355-031200-
COASTAL MARINE OBSERVATIONS


STATION/POSITION TIME  SKY/WX   TEMP    WIND        PRES    VSBY  WAVE
                                AIR SEA DIR/SP/G                  HT/PER
                 (UTC)          (F)     (DEG/KT/KT) (MB)    (MI)  (FT/S)
NY HARB ENTRANCE 0950            51 51   70/ 10/ 10 1010.3          3/ 9
20S FIRE ISLAND  0950            49 49   80/  8/ 10 1010.5          3/10
GREAT SOUTH BAY  1030            53 56   40/ 10/ 12   N/A
23 SSW MONTAUK P 0950            48 47   50/ 12/ 14 1010.7          3/ 6
15 E BARNEGAT LI 1022               51                N/A           3/ 8
HUDSON CANYON    0950            52 49              1009.2          3/ 9
KINGS POINT      1000            52 54              1011.8
EXECUTION ROCKS  NOT AVBL
CENTRAL LI SOUND NOT AVBL
EASTERN LI SOUND 1000            49 48   60/ 10/ 12   N/A
ROBBINS REEF     1006            53     100/ 11/ 13 1010.0
$$


>>>>>>>>>>>>>>>>>>>>>>>>>>>> KEY <<<<<<<<<<<<<<<<<<<<<<<<<<<
>                                                          <
>     SKY/WX - SKY CONDITION/PRESENT WEATHER               <
>     TMP    - TEMPERATURE IN FAHRENHEIT                   <
>     DP     - DEWPOINT IN FAHRENHEIT                      <
>     RH     - RELATIVE HUMIDITY IN PERCENT                <
>     WIND   - DIRECTION AND SPEED IN MPH                  <
>     PRES   - MEAN SEA LEVEL PRESSURE IN INCHES OF HG     <
>     WCI    - WIND CHILL INDEX                            <
>     VSB    - VISIBILITY IN MILES                         <
>     HX     - HEAT INDEX                                  <
>     TC     - TEMPERATURE IN CELSIUS                      <
>     VRB    - VARIABLE WIND DIRECTION                     <
>                                                          <
>>>>>>>>>>>>>>>>>>>>>>>>>>>> KEY <<<<<<<<<<<<<<<<<<<<<<<<<<<






USA.gov is the U.S. government's official web portal to all federal, state and local government web resources and services.